Flag for Lithuania Weather past 2 weeks in Kaunas, Lithuania

Now
57 °F

Passing clouds.


Feels Like: 56 °F
Forecast: 44 / 69 °F
Wind: 6 mph from Southwest

Location: Kaunas

Current Time: Apr 26, 2015 at 11:21:40 AM

Latest Report: Apr 26, 2015 at 10:50 AM


Visibility: N/A

Pressure: 29.65 "Hg

Humidity: 59%

Dew point: 43 °F

Location of KaunasLocation

Historic Weather in Kaunas — Graph

°F

Kaunas temperature yesterday

Maximum temperature yesterday: 68 °F (at 2:20 PM)
Minimum temperature yesterday: 39 °F (at 3:50 AM)
Average temperature yesterday: 54 °F

Past Weeks' High & Low Weather Summary

 TemperatureHumidityPressure
High68 °F (Apr 25, 2:20 PM)93% (Apr 12, 9:50 AM)30.18 "Hg (Apr 12, 9:50 AM)
Low30 °F (Apr 22, 6:50 AM)14% (Apr 14, 4:20 PM)29.36 "Hg (Apr 16, 4:50 AM)
Average46 °F61%29.86 "Hg
* Reported Apr 11 10:20 AM — Apr 26 10:20 AM, Kaunas, Weather by CustomWeather, © 2015

Note: Actual official high and low records may vary slightly from our data, if they occured in-between our weather recording intervals... More about our weather records

Advertising

Kaunas weather history for previous 24 hours

 ConditionsComfort  
Time TempWeatherWind HumidityBarometerVisibility
10:20 AM
Sun, Apr 26
57 °FLight rain. Clear.7 mph55%29.65 "HgN/A
9:50 AM57 °FPassing clouds.7 mph55%29.65 "HgN/A
9:20 AM57 °FPassing clouds.5 mph55%29.65 "HgN/A
8:50 AM57 °FSunny.8 mph55%29.68 "Hg10 mi
8:20 AM55 °FSunny.7 mph59%29.68 "Hg10 mi
7:50 AM54 °FSunny.6 mph63%29.68 "Hg10 mi
7:20 AM54 °FSunny.6 mph63%29.68 "Hg10 mi
6:50 AM52 °FClear.6 mph67%29.68 "Hg10 mi
6:20 AM52 °FClear.5 mph62%29.68 "Hg10 mi
5:50 AM52 °FClear.5 mph62%29.68 "Hg10 mi
5:20 AM52 °FClear.3 mph62%29.68 "Hg10 mi
4:50 AM54 °FPassing clouds.3 mph58%29.71 "HgN/A
4:20 AM54 °FClear.6 mph58%29.71 "Hg10 mi
3:50 AM52 °FClear.3 mph62%29.71 "Hg10 mi
3:20 AM52 °FOvercast.5 mph58%29.71 "HgN/A
2:50 AM50 °FOvercast.3 mph62%29.71 "HgN/A
2:20 AM54 °FPassing clouds.5 mph54%29.74 "HgN/A
1:50 AM54 °FCool.6 mph54%29.74 "HgN/A
1:20 AM54 °FCool.5 mph54%29.74 "HgN/A
12:20 AM52 °FCool.5 mph58%29.77 "HgN/A
11:50 PM
Sat, Apr 25
50 °FClear.3 mph62%29.77 "Hg10 mi
11:20 PM50 °FClear.No wind62%29.77 "Hg10 mi
10:50 PM48 °FClear.1 mph66%29.77 "Hg10 mi
10:20 PM50 °FClear.1 mph67%29.77 "Hg10 mi
9:50 PM54 °FClear.No wind58%29.77 "Hg10 mi
9:20 PM55 °FSunny.2 mph51%29.77 "Hg10 mi
8:50 PM59 °FSunny.3 mph42%29.77 "Hg10 mi
8:20 PM64 °FSunny.3 mph32%29.77 "Hg10 mi
7:50 PM64 °FPassing clouds.5 mph34%29.77 "HgN/A
7:20 PM66 °FPassing clouds.6 mph32%29.77 "HgN/A
6:50 PM68 °FPassing clouds.8 mph28%29.77 "HgN/A
6:20 PM68 °FSunny.10 mph28%29.77 "Hg10 mi
5:50 PM68 °FPassing clouds.12 mph28%29.80 "HgN/A
5:20 PM66 °FPassing clouds.8 mph32%29.80 "HgN/A
4:50 PM68 °FPassing clouds.12 mph28%29.80 "HgN/A
4:20 PM68 °FPassing clouds.12 mph30%29.80 "HgN/A
3:50 PM68 °FPassing clouds.13 mph30%29.80 "HgN/A
3:20 PM68 °FPassing clouds.9 mph33%29.83 "HgN/A
2:50 PM68 °FPassing clouds.13 mph35%29.83 "HgN/A
2:20 PM68 °FPassing clouds.13 mph35%29.83 "HgN/A
1:50 PM66 °FPassing clouds.12 mph37%29.83 "HgN/A
1:20 PM64 °FPassing clouds.10 mph40%29.86 "HgN/A
12:50 PM64 °FPassing clouds.10 mph43%29.86 "HgN/A
12:20 PM63 °FPassing clouds.7 mph45%29.86 "HgN/A
11:50 AM61 °FSunny.5 mph48%29.86 "Hg10 mi
11:20 AM57 °FPassing clouds.9 mph55%29.86 "HgN/A
Weather by CustomWeather, © 2015

See weather overviewHow to use our weather pages